Edinburg, TX

5:35 PM CDT on July 22, 2017 (GMT -0500)
Edinburg

Weather History for KEBG - February, 2013

Change the Weather History Date:

Wednesday, February 6, 2013

  Actual Average (KMFE) Record (KMFE)
Temperature  
Mean Temperature 78 °F -  
Max Temperature 88 °F 71 °F 89 °F (1974)
Min Temperature 67 °F 52 °F 31 °F (1982)
Cooling Degree Days 12    
Growing Degree Days 28 (Base 50)    
Moisture  
Dew Point 65 °F    
Average Humidity 70    
Maximum Humidity 85    
Minimum Humidity 37    
Precipitation  
Precipitation 0.00 in - - ()
Sea Level Pressure  
Sea Level Pressure 29.87 in    
Wind  
Wind Speed 8 mph (ESE)    
Max Wind Speed 20 mph    
Max Gust Speed 24 mph    
Visibility 6 miles    
Events      
Averages and records for this station are not official NWS values.
T = Trace of Precipitation, MM = Missing Value Source: NWS Daily Summary

Daily Weather History Graph

Daily Weather History Graph

Search for Another Location

Airport or City:

Trip Planner

Search our weather history database for the weather conditions in past years. The results will help you decide how hot, cold, wet, or windy it might be!

Date:

Astronomy

Feb. 06, 2013 Rise Set
Actual Time 7:14 AM CST 6:19 PM CST
Civil Twilight 6:50 AM CST 6:43 PM CST
Nautical Twilight 6:22 AM CST 7:10 PM CST
Astronomical Twilight 5:55 AM CST 7:37 PM CST
Moon 3:49 AM CST (2/6) 2:49 PM CST (2/6)
Length of Visible Light 11h 52m
Length of Day
11h 04m
Waning Crescent, 17% of the Moon is Illuminated
Feb 6
Waning Crescent
Feb 10
New
Feb 17
First Quarter
Feb 25
Full
Mar 4
Last Quarter

Hourly Weather History & Observations

Time (CST) Temp. Heat Index Dew Point Humidity Pressure Visibility Wind Dir Wind Speed Gust Speed Precip Events Conditions
12:15 AM 73.8 °F - 68.2 °F 83% 29.94 in 7.0 mi ENE 4.6 mph - N/A   Overcast
12:35 AM 74.3 °F - 68.2 °F 81% 29.94 in 5.0 mi ENE 6.9 mph - N/A   Haze
1:15 AM 74.1 °F - 68.0 °F 81% 29.92 in 7.0 mi ESE 9.2 mph - N/A   Mostly Cloudy
1:55 AM 73.8 °F - 68.0 °F 82% 29.92 in 7.0 mi SE 8.1 mph - N/A   Mostly Cloudy
2:15 AM 73.8 °F - 68.0 °F 82% 29.91 in 7.0 mi SE 6.9 mph - N/A   Overcast
2:35 AM 73.8 °F - 67.8 °F 82% 29.90 in 7.0 mi ESE 5.8 mph - N/A   Overcast
2:55 AM 73.9 °F - 68.0 °F 82% 29.90 in 7.0 mi SE 8.1 mph - N/A   Overcast
3:15 AM 73.8 °F - 68.0 °F 82% 29.90 in 7.0 mi ESE 6.9 mph - N/A   Overcast
3:35 AM 73.8 °F - 68.0 °F 82% 29.90 in 7.0 mi SE 5.8 mph - N/A   Overcast
3:55 AM 73.6 °F - 68.0 °F 83% 29.90 in 5.0 mi ESE 8.1 mph - N/A   Haze
4:15 AM 73.4 °F - 68.0 °F 83% 29.90 in 7.0 mi ESE 8.1 mph - N/A   Overcast
4:35 AM 73.4 °F - 68.0 °F 83% 29.90 in 5.0 mi ESE 6.9 mph - N/A   Haze
4:55 AM 73.4 °F - 68.0 °F 83% 29.91 in 5.0 mi East 5.8 mph - N/A   Haze
5:15 AM 73.4 °F - 68.2 °F 84% 29.90 in 7.0 mi East 8.1 mph - N/A   Overcast
5:35 AM 73.4 °F - 68.2 °F 84% 29.90 in 5.0 mi ESE 8.1 mph - N/A   Haze
5:55 AM 73.4 °F - 68.2 °F 84% 29.89 in 5.0 mi ESE 10.4 mph - N/A   Haze
6:15 AM 73.2 °F - 68.0 °F 84% 29.90 in 7.0 mi ESE 8.1 mph - N/A   Overcast
6:35 AM 73.4 °F - 68.2 °F 84% 29.90 in 7.0 mi ESE 6.9 mph - N/A   Overcast
7:15 AM 73.4 °F - 68.4 °F 84% 29.92 in 7.0 mi ESE 6.9 mph - N/A   Overcast
7:35 AM 73.4 °F - 68.4 °F 84% 29.92 in 5.0 mi ESE 5.8 mph - N/A   Haze
7:55 AM 73.4 °F - 68.5 °F 85% 29.93 in 5.0 mi ESE 4.6 mph - N/A   Overcast
8:15 AM 73.4 °F - 68.4 °F 84% 29.93 in 5.0 mi East 5.8 mph - N/A   Haze
8:35 AM 73.6 °F - 68.5 °F 84% 29.92 in 5.0 mi East 6.9 mph - N/A   Haze
8:55 AM 73.8 °F - 68.9 °F 85% 29.92 in 4.0 mi ESE 9.2 mph - N/A   Haze
9:15 AM 74.5 °F - 69.1 °F 83% 29.92 in 5.0 mi ESE 8.1 mph - N/A   Haze
9:35 AM 75.4 °F - 69.3 °F 81% 29.92 in 5.0 mi ESE 5.8 mph - N/A   Haze
9:55 AM 76.1 °F - 69.1 °F 79% 29.93 in 5.0 mi SE 8.1 mph - N/A   Haze
10:15 AM 77.2 °F - 69.1 °F 76% 29.93 in 5.0 mi South 9.2 mph - N/A   Haze
10:35 AM 79.9 °F - 68.5 °F 68% 29.92 in 5.0 mi South 11.5 mph - N/A   Haze
11:15 AM 81.0 °F 83.4 °F 67.3 °F 63% 29.90 in 5.0 mi South 12.7 mph 16.1 mph N/A   Haze
11:35 AM 81.7 °F 84.3 °F 67.5 °F 62% 29.90 in 5.0 mi South 10.4 mph - N/A   Haze
11:55 AM 82.6 °F 85.1 °F 66.7 °F 59% 29.88 in 7.0 mi South 10.4 mph 17.3 mph N/A   Mostly Cloudy
12:15 PM 83.1 °F 85.7 °F 66.7 °F 58% 29.87 in 7.0 mi South 10.4 mph - N/A   Scattered Clouds
12:35 PM 85.1 °F 86.6 °F 64.6 °F 50% 29.85 in 7.0 mi SSW 12.7 mph 19.6 mph N/A   Scattered Clouds
12:55 PM 86.9 °F 87.8 °F 63.1 °F 45% 29.84 in 7.0 mi South 12.7 mph - N/A   Scattered Clouds
1:15 PM 85.3 °F 86.1 °F 63.1 °F 47% 29.83 in 7.0 mi South 11.5 mph - N/A   Scattered Clouds
1:35 PM 86.9 °F 87.2 °F 62.2 °F 43% 29.81 in 7.0 mi SSW 11.5 mph 20.7 mph N/A   Mostly Cloudy
1:55 PM 88.3 °F 88.4 °F 61.0 °F 40% 29.80 in 5.0 mi SSW 12.7 mph 19.6 mph N/A   Haze
2:15 PM 88.2 °F 88.1 °F 60.8 °F 40% 29.79 in 7.0 mi South 9.2 mph - N/A   Scattered Clouds
2:35 PM 86.5 °F 86.5 °F 61.0 °F 42% 29.79 in 7.0 mi SSE 6.9 mph 17.3 mph N/A   Scattered Clouds
2:55 PM 88.3 °F 87.8 °F 60.1 °F 38% 29.77 in 7.0 mi SSW 10.4 mph - N/A   Scattered Clouds
3:15 PM 88.7 °F 88.3 °F 59.7 °F 38% 29.77 in 7.0 mi SW 8.1 mph - N/A   Clear
3:35 PM 87.8 °F 87.4 °F 59.7 °F 39% 29.76 in 10.0 mi SW 6.9 mph - N/A   Scattered Clouds
3:55 PM 88.2 °F 87.6 °F 59.7 °F 38% 29.75 in 7.0 mi South 6.9 mph - N/A   Scattered Clouds
4:15 PM 88.2 °F 87.6 °F 59.4 °F 38% 29.74 in 7.0 mi SW 9.2 mph - N/A   Clear
4:55 PM 88.0 °F 87.1 °F 59.0 °F 37% 29.76 in 7.0 mi Calm Calm - N/A   Scattered Clouds
5:15 PM 87.8 °F 86.9 °F 58.3 °F 37% 29.77 in 7.0 mi SW 4.6 mph - N/A   Mostly Cloudy
5:35 PM 82.6 °F 84.3 °F 64.8 °F 55% 29.78 in 7.0 mi NNE 19.6 mph - N/A   Overcast
5:55 PM 79.3 °F - 64.2 °F 60% 29.79 in 7.0 mi NE 15.0 mph - N/A   Scattered Clouds
6:15 PM 76.1 °F - 63.5 °F 65% 29.80 in 5.0 mi NNE 18.4 mph - N/A   Haze
6:35 PM 73.9 °F - 62.8 °F 68% 29.81 in 7.0 mi NNE 17.3 mph 24.2 mph N/A   Clear
6:55 PM 72.3 °F - 62.6 °F 71% 29.82 in 7.0 mi NNE 15.0 mph 23.0 mph N/A   Clear
7:15 PM 71.2 °F - 63.1 °F 75% 29.82 in 7.0 mi NNE 17.3 mph - N/A   Clear
7:35 PM 70.7 °F - 63.3 °F 77% 29.84 in 7.0 mi NNE 10.4 mph - N/A   Clear
7:55 PM 70.2 °F - 63.1 °F 78% 29.85 in 7.0 mi NNE 9.2 mph - N/A   Scattered Clouds
8:15 PM 70.2 °F - 63.5 °F 79% 29.85 in 7.0 mi NE 9.2 mph - N/A   Clear
8:35 PM 69.8 °F - 63.0 °F 79% 29.86 in 7.0 mi NE 8.1 mph - N/A   Clear
8:55 PM 69.6 °F - 62.8 °F 79% 29.87 in 7.0 mi NE 6.9 mph - N/A   Mostly Cloudy
9:15 PM 69.8 °F - 62.8 °F 78% 29.87 in 7.0 mi NE 9.2 mph - N/A   Overcast
9:35 PM 69.8 °F - 62.8 °F 78% 29.87 in 7.0 mi NNE 9.2 mph - N/A   Overcast
9:55 PM 69.3 °F - 62.8 °F 80% 29.87 in 7.0 mi NNE 6.9 mph - N/A   Mostly Cloudy
10:15 PM 68.9 °F - 62.8 °F 81% 29.88 in 10.0 mi NNE 4.6 mph - N/A   Scattered Clouds
10:35 PM 68.5 °F - 62.8 °F 82% 29.88 in 7.0 mi NNE 4.6 mph - N/A   Scattered Clouds
10:55 PM 68.2 °F - 62.8 °F 83% 29.88 in 7.0 mi North 5.8 mph - N/A   Clear
11:15 PM 68.2 °F - 63.0 °F 83% 29.88 in 7.0 mi North 4.6 mph - N/A   Clear
11:35 PM 67.6 °F - 62.8 °F 84% 29.89 in 7.0 mi North 4.6 mph - N/A   Clear
11:55 PM 67.3 °F - 62.6 °F 85% 29.88 in 7.0 mi North 3.5 mph - N/A   Scattered Clouds